This demonstration page uses our WeatherBlox Daily Observations layout. Learn more.

Hourly Observations for June 14, 2015

Temp ( °F °C ) Dew Point ( °F °C ) Humidity (%) Winds ( mph kmh ) Pressure ( in mb ) Visibility ( mi km ) Precip ( " mm )
12:15 am 00:15 Clear 66 19.1 63 17 88 88 SSE 7 11 29.83 1010 10 16.0934 0 0
12:35 am 00:35 Clear 66 18.8 63 17 89 89 SSE 7 11 29.83 1010 10 16.0934 0 0
12:55 am 00:55 Clear 65 18.6 63 17 90 90 SSE 6 9 29.83 1010 10 16.0934 0 0
1:15 am 01:15 Clear 65 18.3 63 17 92 92 SSE 6 9 29.85 1011 10 16.0934 0 0
1:35 am 01:35 Partly Cloudy 65 18.2 63 17 93 93 SSE 6 9 29.85 1011 10 16.0934 0 0
1:55 am 01:55 Partly Cloudy 64 18 62 16.7 92 92 SSE 5 7 29.83 1010 10 16.0934 0 0
2:15 am 02:15 Clear 64 17.6 62 16.5 93 93 SE 5 7 29.83 1010 10 16.0934 0 0
2:35 am 02:35 Partly Cloudy 64 17.5 62 16.5 94 94 SE 5 7 29.83 1010 10 16.0934 0 0
2:55 am 02:55 Partly Cloudy 63 17.2 61 16.2 94 94 SSE 3 6 29.83 1010 7 11.26538 0 0
3:15 am 03:15 Mostly Cloudy 63 17.4 62 16.5 94 94 SSE 3 6 29.83 1010 7 11.26538 0 0
3:35 am 03:35 Mostly Cloudy 64 18 63 17.1 95 95 SSE 3 6 29.83 1010 7 11.26538 0 0
3:55 am 03:55 Mostly Cloudy 64 17.9 62 16.9 94 94 SSE 5 7 29.83 1010 7 11.26538 0 0
4:15 am 04:15 Clear 64 17.7 62 16.7 94 94 SE 5 7 29.83 1010 7 11.26538 0 0
4:35 am 04:35 Clear 64 17.5 62 16.5 94 94 SE 5 7 29.83 1010 7 11.26538 0 0
4:55 am 04:55 Clear with Mist and Fog 63 17.1 61 16.2 94 94 SE 5 7 29.83 1010 4 6.43736 0 0
5:15 am 05:15 Mostly Cloudy with Fog 62 16.7 61 16 96 96 SSE 3 6 29.83 1010 0.5 0.80467 0 0
5:35 am 05:35 Mostly Cloudy with Mist and Fog 62 16.5 60 15.7 95 95 Calm 29.8 1009 1.75 2.816345 0 0
5:55 am 05:55 Mostly Cloudy with Mist and Fog 60 15.8 59 15.1 96 96 SE 3 6 29.83 1010 0.75 1.207005 0 0
6:15 am 06:15 Cloudy with Fog 62 16.8 61 16.1 96 96 SE 5 7 29.83 1010 0.5 0.80467 0 0
6:35 am 06:35 Cloudy with Fog 64 17.5 62 16.9 96 96 SSE 3 6 29.83 1010 5 8.0467 0 0
6:55 am 06:55 Cloudy with Fog 64 17.7 63 17.1 96 96 S 5 7 29.83 1010 5 8.0467 0 0
7:15 am 07:15 Cloudy with Light Drizzle 65 18.4 64 17.9 97 97 S 6 9 29.83 1010 5 8.0467 0 0
7:35 am 07:35 Cloudy with Fog 66 19 65 18.3 96 96 S 7 11 29.8 1009 5 8.0467 0 0
7:55 am 07:55 Cloudy with Fog 67 19.2 65 18.6 96 96 SSW 8 13 29.8 1009 0.5 0.80467 0 0
8:15 am 08:15 Cloudy with Mist and Fog 67 19.6 66 19 96 96 S 5 7 29.8 1009 1 1.60934 0 0
8:35 am 08:35 Cloudy with Mist and Fog 68 19.8 66 19.1 96 96 S 7 11 29.8 1009 1.75 2.816345 0 0
8:55 am 08:55 Cloudy with Mist and Fog 68 20.1 67 19.4 96 96 S 8 13 29.83 1010 5 8.0467 0 0
9:15 am 09:15 Cloudy 69 20.5 68 19.9 96 96 SW 3 6 29.83 1010 7 11.26538 0 0
9:35 am 09:35 Mostly Cloudy 70 21.2 69 20.4 95 95 SSW 5 7 29.83 1010 7 11.26538 0 0
9:55 am 09:55 Mostly Cloudy 73 22.5 68 20.2 87 87 WSW 3 6 29.8 1009 10 16.0934 0 0
10:15 am 10:15 Mostly Cloudy 73 22.8 68 20.1 85 85 WSW 5 7 29.8 1009 10 16.0934 0 0
10:35 am 10:35 Mostly Cloudy 74 23.5 69 20.4 83 83 SSW 5 7 29.8 1009 10 16.0934 0 0
10:55 am 10:55 Mostly Cloudy 74 23.3 68 20.1 82 82 WSW 5 7 29.8 1009 10 16.0934 0 0
11:15 am 11:15 Partly Cloudy 75 23.7 68 20.1 80 80 SW 5 7 29.8 1009 10 16.0934 0 0
11:35 am 11:35 Partly Cloudy 76 24.5 68 20.2 77 77 Calm 29.8 1009 10 16.0934 0 0
11:55 am 11:55 Partly Cloudy 76 24.6 68 19.8 75 75 Calm 29.8 1009 10 16.0934 0 0
12:15 pm 12:15 Partly Cloudy 77 24.8 66 18.9 70 70 Calm 29.8 1009 10 16.0934 0 0
12:35 pm 12:35 Partly Cloudy 79 25.9 67 19.5 68 68 SSE 3 6 29.77 1008 10 16.0934 0 0
1:15 pm 13:15 Mostly Cloudy with Nearby Thunderstorms 80 26.4 65 18.6 62 62 Calm 29.77 1008 10 16.0934 0 0
1:35 pm 13:35 Mostly Cloudy 79 26.1 66 18.8 64 64 E 6 9 29.77 1008 10 16.0934 0 0
1:55 pm 13:55 Mostly Cloudy 79 26.3 67 19.3 65 65 ESE 10 17 29.77 1008 10 16.0934 0 0
2:15 pm 14:15 Partly Cloudy with Thunderstorms 80 26.6 66 19.1 64 64 E 8 13 29.74 1007 10 16.0934 0 0
2:35 pm 14:35 Mostly Cloudy 78 25.4 66 18.9 67 67 E 18 30 29.77 1008 10 16.0934 0 0
2:55 pm 14:55 Cloudy with Light Thunderstorms 70 21.3 65 18.1 82 82 NE 12 19 29.8 1009 3 4.82802 0.07 1.778
3:15 pm 15:15 Cloudy 66 19 62 16.5 86 86 WNW 17 28 29.83 1010 2.5 4.02335 0.1 2.54
3:35 pm 15:35 Cloudy with Heavy Rain 64 18 61 16.1 89 89 Calm 29.85 1011 1 1.60934 0.61 15.494
3:55 pm 15:55 Cloudy 66 19.1 62 16.7 86 86 NNE 5 7 29.83 1010 7 11.26538 0.73 18.542
4:15 pm 16:15 Cloudy with Light Rain 68 20 63 17 83 83 ENE 7 11 29.83 1010 10 16.0934 0 0
4:35 pm 16:35 Cloudy 67 19.5 64 17.6 89 89 ENE 13 20 29.8 1009 10 16.0934 0 0
4:55 pm 16:55 Cloudy 67 19.3 63 17.4 89 89 ESE 7 11 29.77 1008 10 16.0934 0 0
5:15 pm 17:15 Cloudy 67 19.5 63 17.1 86 86 SW 10 17 29.8 1009 10 16.0934 0 0
5:35 pm 17:35 Cloudy 67 19.5 63 17 86 86 S 13 20 29.83 1010 10 16.0934 0 0
5:55 pm 17:55 Cloudy 66 18.8 62 16.5 87 87 SSW 10 17 29.83 1010 10 16.0934 0 0
6:15 pm 18:15 Cloudy 66 18.8 62 16.7 88 88 SSW 6 9 29.83 1010 10 16.0934 0 0
6:35 pm 18:35 Cloudy with Rain 66 19 63 17.1 89 89 SSE 8 13 29.83 1010 10 16.0934 0 0
6:55 pm 18:55 Cloudy with Light Rain 66 19 62 16.4 85 85 NW 3 6 29.83 1010 10 16.0934 0.01 0.254
7:15 pm 19:15 Cloudy with Light Rain 66 19 63 17 88 88 Calm 29.8 1009 10 16.0934 0.01 0.254
7:35 pm 19:35 Mostly Cloudy with Light Rain 66 18.8 63 17.3 91 91 NNW 3 6 29.8 1009 10 16.0934 0.01 0.254
7:55 pm 19:55 Cloudy with Light Drizzle 66 18.7 63 17.3 92 92 WNW 9 15 29.8 1009 10 16.0934 0.01 0.254
8:15 pm 20:15 Cloudy with Light Rain 65 18.6 63 17 90 90 Calm 29.8 1009 10 16.0934 0 0
8:35 pm 20:35 Cloudy 66 18.7 63 17 90 90 E 7 11 29.83 1010 10 16.0934 0 0
8:55 pm 20:55 Cloudy with Light Rain 65 18.6 63 17 90 90 WNW 3 6 29.83 1010 10 16.0934 0.01 0.254
9:15 pm 21:15 Cloudy with Light Rain 65 18.5 63 17 91 91 ESE 8 13 29.85 1011 10 16.0934 0.01 0.254
9:35 pm 21:35 Cloudy with Light Rain 65 18.4 63 17 92 92 S 3 6 29.88 1012 10 16.0934 0.01 0.254
9:55 pm 21:55 Cloudy with Light Rain 65 18.4 62 16.5 89 89 WSW 3 6 29.91 1013 10 16.0934 0.02 0.508
10:15 pm 22:15 Cloudy with Light Rain 65 18.2 62 16.5 90 90 S 5 7 29.91 1013 10 16.0934 0.01 0.254
10:35 pm 22:35 Cloudy 65 18.5 61 16.1 86 86 ESE 7 11 29.91 1013 10 16.0934 0.01 0.254
10:55 pm 22:55 Cloudy 64 18 62 16.5 91 91 ESE 9 15 29.91 1013 10 16.0934 0.01 0.254
11:15 pm 23:15 Mostly Cloudy with Light Drizzle 64 18 62 16.8 93 93 SE 5 7 29.91 1013 10 16.0934 0 0
11:35 pm 23:35 Mostly Cloudy 64 18 62 16.9 93 93 Calm 29.91 1013 10 16.0934 0 0
11:55 pm 23:55 Mostly Cloudy 64 18 62 16.8 93 93 W 5 7 29.91 1013 10 16.0934 0 0

Powered by AerisWeather